Simultaneous Nadir Overpasses (SNOs) Predictions

Prediction of SNOs between GOES-16 and AQUA Satellite Orbit:

Table of predicted SNOs for the next 14.0 days since TLE Epoch: 1/13/2024
Index Date Time (GOES-16) GOES-16 Lat,Lon AQUA Lat,Lon Distance(km) Time Diff (sec)
1 01/14/2024 18:55:00 0.04, -75.22 0.44, -73.41 206.74 80
2 01/15/2024 07:15:26 -0.05, -75.22 0.64, -78.35 355.99 80
3 01/17/2024 06:57:24 -0.05, -75.24 -0.20, -74.60 73.49 80
4 01/17/2024 19:17:58 0.05, -75.25 -0.88, -79.58 492.00 80
5 01/19/2024 19:02:34 0.04, -75.28 -0.10, -75.81 61.33 80
6 01/21/2024 18:49:50 0.03, -75.30 0.74, -72.05 370.20 80
7 01/22/2024 07:10:14 -0.02, -75.31 0.36, -76.99 191.46 80
8 01/24/2024 06:52:10 -0.00, -75.34 -0.48, -73.23 241.35 80
9 01/24/2024 19:12:42 -0.01, -75.35 -0.62, -78.20 323.43 80
10 01/26/2024 18:59:55 -0.02, -75.40 0.16, -74.42 110.75 80
